Вернуться в каталог

THORAD AGENA D DEB

АктивенPO
NORAD 4818·DEBRIS·🇺🇸 United States

Запущен Apr 8, 1970 с Vandenberg Space Force Base

Loading…

Ближайшие Пролёты (ближайшие 24 часа)

TLE

СвежийSource: Space-Track

Эпоха: Sep 14, 2026, 06:12 UTC

1 04818U 70025DZ  26257.25889988  .00000303  00000-0  82071-3 0  9991
2 04818  99.8867 162.4393 0271434 351.5939 159.8892 13.10407291691482

Отслеживайте THORAD AGENA D DEB в реальном времени с AllMySat

Download on the App Store